Погода в Малом Рыбушкине

Россия / Нижегородская область     55°25′33″N   45°46′36″E
темп.,
°C
ветер,
м/с
пор.,
м/с
влажн.,
%
обл.,
%
осадки,
мм/ч
давл.,
гПа
погр.,
м
9 мая, вс
вс900:00+10юв3793100 0.0 1010126
03:00+11ююв4989100 0.0 1009205
06:00+11юв51381100 0.3 1009358
09:00+15ююв61270100 0.4 1008715
12:00+16ю61173100 0.2 1009757
15:00+16ююв61375100 0.3 1009744
18:00+16ю61275100 2.4 1009439
21:00+12юз4995100 2.9 1012358
10 мая, пн
пн1000:00+10з4695100 0.1 1014292
03:00+9сз3696100 1.1 1017317
06:00+8ссз4796100 0.8 1019334
09:00+8ссз5793100 1.4 1021424
12:00+8с5994100 1.6 1023431
15:00+9с7989100 2.1 1024500
18:00+9ссв589197 0.0 1026463
21:00+8ссв51195100 0.0 1026360
11 мая, вт
вт1100:00+7ссв41096100 0.0 1027305
03:00+6ссв5119799 0.0 1027268
06:00+7ссв51193100 0.0 1028303
09:00+13св687968 0.0 1029510
12:00+18всв5667100 0.0 1028844
15:00+20всв5664100 0.0 1028992
18:00+18всв4876100 0.0 1028267
21:00+14св499094 0.0 1028157
12 мая, ср
ср1200:00+12св4119395 0.0 1028222
03:00+12всв399416 0.0 1028160
06:00+13всв378853 0.0 1028183
09:00+19вюв476291 0.0 1028494
12:00+23вюв584795 0.0 10281652
15:00+23вюв574541 0.0 10272225
18:00+21юв356733 0.0 1027157
21:00+16в347778 0.0 102753
13 мая, чт
чт1300:00+14вюв347883 0.0 102665
03:00+13вюв2282100 0.0 102630
06:00+15вюв397998 0.0 1026228
09:00+19вюв5116039 0.0 1025626
12:00+22юв7941100 0.0 10241442
15:00+23юв61048100 0.0 10231748
18:00+17вюв41172100 0.0 1024409
21:00+15юв411767 0.0 1023246